TimeEDT,TemperatureF,Dew PointF,Humidity,Sea Level PressureIn,VisibilityMPH,Wind Direction,Wind SpeedMPH,Gust SpeedMPH,PrecipitationIn,Events,Conditions,WindDirDegrees,DateUTC
12:15 AM,71.2,70.9,99,30.11,10.0,Calm,Calm,-,N/A,,Clear,0,2013-08-24 04:15:00
12:35 AM,70.7,70.7,100,30.10,10.0,NNE,3.5,-,N/A,,Clear,30,2013-08-24 04:35:00
12:55 AM,70.7,70.7,100,30.09,10.0,Calm,Calm,-,N/A,,Clear,0,2013-08-24 04:55:00
1:15 AM,70.2,70.2,100,30.10,10.0,Calm,Calm,-,N/A,,Clear,0,2013-08-24 05:15:00
1:35 AM,69.8,69.8,100,30.11,7.0,NNW,3.5,-,N/A,,Clear,330,2013-08-24 05:35:00
1:55 AM,70.2,70.2,100,30.11,10.0,NW,4.6,-,N/A,,Mostly Cloudy,320,2013-08-24 05:55:00
2:15 AM,70.7,70.7,100,30.10,10.0,Calm,Calm,-,N/A,,Scattered Clouds,0,2013-08-24 06:15:00
2:35 AM,70.2,70.2,100,30.11,10.0,Calm,Calm,-,N/A,,Clear,0,2013-08-24 06:35:00
2:55 AM,69.8,69.8,100,30.11,10.0,Calm,Calm,-,N/A,,Clear,0,2013-08-24 06:55:00
3:15 AM,69.1,69.1,100,30.11,5.0,Calm,Calm,-,N/A,,Clear,0,2013-08-24 07:15:00
3:35 AM,69.1,69.1,100,30.11,7.0,Calm,Calm,-,N/A,,Scattered Clouds,0,2013-08-24 07:35:00
3:55 AM,69.1,69.1,100,30.12,10.0,Calm,Calm,-,N/A,,Scattered Clouds,0,2013-08-24 07:55:00
4:15 AM,69.1,69.1,100,30.13,7.0,Calm,Calm,-,N/A,,Mostly Cloudy,0,2013-08-24 08:15:00
4:35 AM,69.4,69.4,100,30.13,7.0,Calm,Calm,-,N/A,,Overcast,0,2013-08-24 08:35:00
4:55 AM,69.3,69.3,100,30.13,7.0,Calm,Calm,-,N/A,,Scattered Clouds,0,2013-08-24 08:55:00
5:15 AM,68.9,68.9,100,30.14,7.0,Calm,Calm,-,N/A,,Clear,0,2013-08-24 09:15:00
5:35 AM,68.5,68.5,100,30.15,7.0,Calm,Calm,-,N/A,,Clear,0,2013-08-24 09:35:00
5:55 AM,68.2,68.2,100,30.15,5.0,Calm,Calm,-,N/A,,Clear,0,2013-08-24 09:55:00
6:15 AM,68.2,68.2,100,30.16,5.0,NE,4.6,-,N/A,,Clear,40,2013-08-24 10:15:00
6:35 AM,68.9,68.9,100,30.16,7.0,NE,4.6,-,N/A,,Clear,40,2013-08-24 10:35:00
6:55 AM,69.6,69.6,100,30.17,10.0,NE,4.6,-,N/A,,Mostly Cloudy,50,2013-08-24 10:55:00
7:15 AM,69.8,69.8,100,30.18,7.0,NE,6.9,-,N/A,,Mostly Cloudy,40,2013-08-24 11:15:00
7:35 AM,70.0,70.0,100,30.18,7.0,NE,5.8,-,N/A,,Mostly Cloudy,50,2013-08-24 11:35:00
7:55 AM,70.3,70.3,100,30.19,10.0,NE,5.8,-,N/A,,Overcast,50,2013-08-24 11:55:00
8:15 AM,70.7,70.5,99,30.20,10.0,NE,8.1,-,N/A,,Overcast,40,2013-08-24 12:15:00
8:35 AM,70.7,70.2,98,30.21,10.0,NE,5.8,-,N/A,,Overcast,40,2013-08-24 12:35:00
8:55 AM,70.9,70.0,97,30.21,10.0,NE,6.9,-,N/A,,Overcast,40,2013-08-24 12:55:00
9:15 AM,71.2,69.6,95,30.22,10.0,NE,5.8,-,N/A,,Overcast,50,2013-08-24 13:15:00
9:35 AM,71.2,69.8,95,30.22,10.0,NNE,4.6,-,N/A,,Overcast,30,2013-08-24 13:35:00
9:55 AM,71.2,69.6,95,30.24,10.0,NE,4.6,-,N/A,,Overcast,40,2013-08-24 13:55:00
10:15 AM,71.2,69.6,95,30.24,10.0,NNE,6.9,-,N/A,,Overcast,30,2013-08-24 14:15:00
10:35 AM,71.2,69.3,93,30.26,10.0,NE,6.9,-,N/A,,Overcast,40,2013-08-24 14:35:00
10:55 AM,70.9,69.1,94,30.26,10.0,NNE,6.9,-,N/A,,Overcast,20,2013-08-24 14:55:00
11:15 AM,70.7,68.9,94,30.26,10.0,NNE,5.8,-,N/A,,Overcast,20,2013-08-24 15:15:00
11:35 AM,70.9,68.5,92,30.26,10.0,NNE,8.1,-,N/A,,Overcast,30,2013-08-24 15:35:00
11:55 AM,71.6,68.5,90,30.26,10.0,NE,6.9,-,N/A,,Overcast,50,2013-08-24 15:55:00
12:15 PM,72.3,68.7,88,30.26,10.0,NE,5.8,-,N/A,,Overcast,40,2013-08-24 16:15:00
12:35 PM,72.5,68.7,88,30.26,10.0,NE,8.1,-,N/A,,Overcast,50,2013-08-24 16:35:00
12:55 PM,72.5,69.1,89,30.26,10.0,NE,6.9,-,N/A,,Overcast,50,2013-08-24 16:55:00
1:15 PM,73.4,69.8,88,30.26,10.0,NE,6.9,-,N/A,,Overcast,40,2013-08-24 17:15:00
1:35 PM,73.4,68.9,86,30.26,10.0,NE,5.8,-,N/A,,Overcast,50,2013-08-24 17:35:00
1:55 PM,73.6,69.6,87,30.26,10.0,NE,6.9,-,N/A,,Overcast,40,2013-08-24 17:55:00
2:15 PM,73.9,69.3,85,30.26,10.0,NNE,6.9,-,N/A,,Overcast,30,2013-08-24 18:15:00
2:35 PM,74.7,68.9,82,30.26,10.0,ENE,9.2,-,N/A,,Overcast,60,2013-08-24 18:35:00
2:55 PM,76.3,69.1,78,30.25,10.0,ENE,8.1,-,N/A,,Mostly Cloudy,70,2013-08-24 18:55:00
3:15 PM,75.7,69.3,80,30.25,10.0,NE,8.1,-,N/A,,Overcast,50,2013-08-24 19:15:00
3:35 PM,76.1,70.3,82,30.25,10.0,NE,6.9,-,N/A,,Overcast,50,2013-08-24 19:35:00
3:55 PM,75.9,69.4,80,30.25,10.0,NNE,9.2,-,N/A,,Overcast,30,2013-08-24 19:55:00
4:15 PM,75.7,70.0,82,30.25,10.0,NNE,5.8,-,N/A,,Overcast,20,2013-08-24 20:15:00
4:35 PM,75.9,70.0,82,30.25,10.0,NE,5.8,-,N/A,,Overcast,50,2013-08-24 20:35:00
4:55 PM,78.3,70.7,77,30.24,10.0,ENE,6.9,-,N/A,,Mostly Cloudy,70,2013-08-24 20:55:00
5:15 PM,76.1,70.7,83,30.24,10.0,North,-9999.0,-,N/A,,Overcast,0,2013-08-24 21:15:00
5:35 PM,77.5,70.5,79,30.24,10.0,Calm,Calm,-,N/A,,Scattered Clouds,0,2013-08-24 21:35:00
5:55 PM,76.5,70.3,81,30.23,10.0,NE,6.9,-,N/A,,Mostly Cloudy,50,2013-08-24 21:55:00
6:15 PM,76.1,70.7,83,30.23,10.0,NE,3.5,-,N/A,,Overcast,50,2013-08-24 22:15:00
6:35 PM,75.7,70.9,85,30.23,10.0,ENE,3.5,-,N/A,,Scattered Clouds,60,2013-08-24 22:35:00
6:55 PM,77.0,71.1,82,30.23,10.0,ENE,3.5,-,N/A,,Clear,70,2013-08-24 22:55:00
7:15 PM,75.6,70.3,84,30.24,10.0,ENE,4.6,-,N/A,,Clear,60,2013-08-24 23:15:00
7:35 PM,73.6,70.5,90,30.24,10.0,Calm,Calm,-,N/A,,Clear,0,2013-08-24 23:35:00
7:55 PM,71.6,70.7,97,30.24,10.0,Calm,Calm,-,N/A,,Clear,0,2013-08-24 23:55:00
8:15 PM,70.7,70.7,100,30.25,10.0,Calm,Calm,-,N/A,,Clear,0,2013-08-25 00:15:00
8:35 PM,69.8,69.8,100,30.25,7.0,Calm,Calm,-,N/A,,Clear,0,2013-08-25 00:35:00
8:55 PM,69.1,69.1,100,30.26,5.0,Calm,Calm,-,N/A,,Clear,0,2013-08-25 00:55:00
9:15 PM,68.5,68.5,100,30.27,5.0,Calm,Calm,-,N/A,,Clear,0,2013-08-25 01:15:00
9:35 PM,68.4,68.4,100,30.27,4.0,Calm,Calm,-,N/A,,Clear,0,2013-08-25 01:35:00
9:55 PM,67.6,67.6,100,30.27,4.0,Calm,Calm,-,N/A,,Clear,0,2013-08-25 01:55:00
10:15 PM,67.6,67.6,100,30.28,4.0,Calm,Calm,-,N/A,,Scattered Clouds,0,2013-08-25 02:15:00
10:35 PM,67.3,67.3,100,30.29,4.0,Calm,Calm,-,N/A,,Scattered Clouds,0,2013-08-25 02:35:00
10:55 PM,67.1,67.1,100,30.29,4.0,Calm,Calm,-,N/A,,Scattered Clouds,0,2013-08-25 02:55:00
11:15 PM,67.1,67.1,100,30.30,4.0,Calm,Calm,-,N/A,,Mostly Cloudy,0,2013-08-25 03:15:00
11:35 PM,67.1,67.1,100,30.29,4.0,Calm,Calm,-,N/A,,Mostly Cloudy,0,2013-08-25 03:35:00
11:55 PM,67.1,67.1,100,30.30,4.0,Calm,Calm,-,N/A,,Scattered Clouds,0,2013-08-25 03:55:00